Regional Weather Roundup
Issued by NWS

Home | Current Version | Previous Version | Text Only | Print | Product List | Glossary Off
Versions: 1 2 3 4 5 6 7 8 9 10 11 12 13 14 15 16 17 18 19 20 21 22 23 24 25 26 27 28 29 30 31 32 33 34 35 36 37 38 39 40 41 42 43 44 45 46 47 48 49 50

000
ASUS45 KTFX 250110
RWRMT
MONTANA REGIONAL WEATHER ROUNDUP
NATIONAL WEATHER SERVICE GREAT FALLS MT
600 PM MST FRI FEB 24 2017

NOTE: "FAIR" INDICATES FEW OR NO CLOUDS BELOW 12000 FEET WITH NO
SIGNIFICANT WEATHER AND/OR OBSTRUCTIONS TO VISIBILITY.

MTZ001>007-043-250200-
WEST OF THE DIVIDE

CITY           SKY/WX    TMP DP  RH WIND       PRES   REMARKS
KALISPELL      MOCLDY    25  16  68 SW5       30.09R
MISSOULA       MOCLDY    31  13  47 N10       30.09R WCI  22
BUTTE          CLOUDY    22  12  65 S8        29.95R WCI  12
MULLAN PASS    LGT SNOW  16  14  92 NW3       29.96S FOG
ANACONDA         N/A     25  10  54 NE3       29.98R
DEER LODGE       N/A     27   9  46 NW12G18   30.01S WCI  16
EUREKA           N/A     28  10  47 E3        30.11S
HAMILTON         N/A     30  12  47 N5        30.06R
LIBBY            N/A     32  16  51 CALM      30.10R
$$

MTZ008-052>055-250200-
SOUTHWEST MONTANA

CITY           SKY/WX    TMP DP  RH WIND       PRES   REMARKS
BOZEMAN        CLOUDY    29  18  63 CALM      29.99R
DILLON         CLOUDY    25  13  60 SW5       29.94R
W YELLOWSTONE  LGT SNOW  14   9  79 SW9G17    29.96R WCI   2
ENNIS          CLOUDY    21  19  93 CALM      30.01R FOG
$$

MTZ009-010-012-014-046-048-049-054-250200-
EAST SLOPES AND CENTRAL MONTANA

CITY           SKY/WX    TMP DP  RH WIND       PRES   REMARKS
CUT BANK       CLOUDY    24  15  68 N7        30.03R WCI  16
GREAT FALLS    CLEAR     26  13  57 N5        30.02R
MALMSTROM AFB  CLEAR     28  14  56 N3        30.04R
HELENA         CLOUDY    32  10  40 NW8       30.00R WCI  25
AUGUSTA        MOCLDY    25  13  60 NE7       30.00R WCI  17
BOWMANS CRNR   MOCLDY    25  12  57 NE8       29.98R WCI  16
CHOTEAU          N/A     27  14  59 N6        30.05R WCI  20
POWER            N/A     24  13  64 N6        30.02R WCI  16
RAYNESFORD       N/A     21  16  79 SW6       30.02R WCI  14
ULM            MOCLDY    28  20  71 MISG      30.03R
$$

MTZ011-013-016-021-045-047-050-051-250200-
NORTH CENTRAL MONTANA

CITY           SKY/WX    TMP DP  RH WIND       PRES   REMARKS
HAVRE          FLURRIES  28  27  96 CALM      30.06R
LEWISTOWN      CLOUDY    23  19  85 SW3       30.00R
N BAR RANCH    CLOUDY    21  18  86 NW9       30.00R WCI  11
CHINOOK          N/A     27  27 100 CALM      30.07S
DENTON         MOCLDY    24  20  83 W5        30.00R
FORT BENTON      N/A     28  16  59 MISG      30.07
GEYSER         MOCLDY    26  20  80 W3        30.01R
GRASS RANGE    MOCLDY    25  20  82 NW10      29.98R WCI  15
JUDITH GAP     FLURRIES  20  18  89 N17       29.97R WCI   6
ROY            MOCLDY    26  21  84 MISG      30.00R
STANFORD       MOCLDY    24  21  90 NW6       29.99R WCI  17
WINIFRED         N/A     24  19  81 W6        30.01R WCI  17
$$

MTZ017>020-022>027-061-062-250200-
NORTHEAST MONTANA

CITY           SKY/WX    TMP DP  RH WIND       PRES   REMARKS
GLASGOW        LGT SNOW  29  27  92 SW5       30.04S FOG
JORDAN           N/A     30  22  72 CALM      30.02S
SIDNEY         CLOUDY    26  16  65 CALM      30.08F
WOLF POINT     CLOUDY    31  22  69 CALM      30.06S
PLENTYWOOD       N/A     27  25  93 S8        30.04S WCI  18
POPLAR           N/A     28  21  74 CALM      30.07S
SCOBEY           N/A     28  21  75 S2        30.01S
$$

MTZ028>42-056>058-250200-
SOUTHCENTRAL AND SOUTHEAST MONTANA

CITY           SKY/WX    TMP DP  RH WIND       PRES   REMARKS
BAKER          CLOUDY    27  17  66 W3        30.04S
BILLINGS       CLOUDY    27  22  81 W3        30.01R
LIVINGSTON     LGT SNOW  27  19  72 NW9       29.97R WCI  18
MILES CITY     CLOUDY    31  19  61 CALM      30.04R
BIG TIMBER     MOCLDY    25  16  68 CALM      30.01R
EKALAKA          N/A     25  11  55 CALM      29.98S
FORSYTH          N/A     32  25  74 SE3       30.03R
HARLOWTON      FLURRIES  24  20  86 N7        29.99R WCI  16
LAUREL           N/A     26  19  74 CALM      29.99S
$$

REGIONAL REPORTS...DAKOTAS

CITY           SKY/WX    TMP DP  RH WIND       PRES   REMARKS
WILLISTON      CLOUDY    24  14  65 SW3       30.09S
MINOT          CLOUDY    26  19  74 CALM      30.08S
DICKINSON      CLOUDY    21  15  78 SW3       30.04F
BEACH            N/A    N/A N/A N/A MISG        N/A
CROSBY         MOCLDY    25  23  93 SW8       30.08S WCI  16
TIOGA            N/A     21  19  93 SW9       30.07F WCI  11
WATFORD CITY   CLOUDY    23  16  74 SW3       30.09S
BISMARCK       CLOUDY    27  16  63 NW5       30.12S
GRAND FORKS    PTCLDY    17   9  70 N8        30.12F WCI   7
FARGO          CLEAR     20  12  71 N18       30.09S WCI   5
BUFFALO SD       N/A     29  11  47 CALM      29.98S
RAPID CITY     CLOUDY    20  14  77 S5        30.06S
$$

REGIONAL REPORTS...WYOMING/IDAHO/WASHINGTON

CITY           SKY/WX    TMP DP  RH WIND       PRES   REMARKS
GILLETTE       MOCLDY    21  16  81 S8        29.97S WCI  11
SHERIDAN       CLOUDY    25  19  78 S7        29.98R WCI  17
BUFFALO WY     CLOUDY    17  11  77 NW7       29.95R WCI   8
CODY           CLOUDY    24  18  77 N6        29.96R WCI  17
YELLOWSTONE LA   N/A     11   4  73 VRB5      29.90R
IDAHO FALLS    CLOUDY    20  18  92 SW18      30.08R FOG     WCI   5
SALMON         CLOUDY    30  14  51 W5        29.99R
BOISE          PTCLDY    34  13  41 W5        30.14R
SPOKANE        SNOW      29  27  92 W6        30.14S VSB 1/2 WCI  23
$$

REGIONAL REPORTS...ALBERTA

CITY           SKY/WX    TMP DP  RH WIND       PRES   REMARKS
EDMONTON       CLOUDY    14   7  73 NE5       30.16S
CALGARY        CLOUDY    18  10  73 E3        30.06S
LETHBRIDGE     MOCLDY    23  21  93 NW5       30.07R
MEDICINE HAT   CLOUDY    27  23  86 N10       30.08R WCI  17
WATERTON GATE    N/A     21  14  73 E3          N/A
MILK RIVER       N/A     23  19  86 N8          N/A  WCI  14
$$

REGIONAL REPORTS...SASKATCHEWAN

CITY           SKY/WX    TMP DP  RH WIND       PRES   REMARKS
SWIFT CURRENT  PTCLDY    21  18  86 NW8       30.02R WCI  12
REGINA         PTCLDY    21  19  93 W6        30.02F WCI  14
SASKATOON      FLURRIES  21  16  79 N13       30.09R WCI   9
CYPRESS HILLS    N/A     18  12  79 NW2         N/A
ASSINIBOIA       N/A     10   5  79 N6          N/A  WCI   1
$$



USA.gov is the U.S. government's official web portal to all federal, state and local government web resources and services.